EXS61TP EGGD-LGKR

Flight info

Callsign EXS61TP
Flight time N/A
Altitude 35000
Route YORQI DCT NUCHU L607 BIG L15 MOTOX DCT RUCAC DCT LESDO DCT ETINO DCT LASAT DCT DEVDI DCT RIPUS DCT RESIA DCT AKADO DCT IXONA DCT SAL DCT UVODI DCT AMUGO DCT VAKSU DCT RODON DCT LIMJA N732 PITAS
Aircraft B738/M-SDE2E3FGHIRWXY/LB1

Departure

Time N/A
Airport Bristol Airport (EGGD)

Arrival

Time 2026-04-29 10:37
Airport Corfu Ioannis Kapodistrias International Airport (LGKR)
Time Latitude Longitude Altitude Speed Heading
2026-04-29 09:53 42.99855 16.75122 37074 ft 476 kts 128°
2026-04-29 09:54 42.95937 16.82421 37075 ft 476 kts 128°
2026-04-29 09:54 42.92030 16.89647 37075 ft 476 kts 128°
2026-04-29 09:55 42.88092 16.96912 37084 ft 476 kts 128°
2026-04-29 09:55 42.84153 17.04164 37077 ft 476 kts 128°
2026-04-29 09:56 42.80197 17.11431 37080 ft 476 kts 128°
2026-04-29 09:56 42.76250 17.18664 37083 ft 476 kts 128°
2026-04-29 09:57 42.72320 17.25848 37082 ft 476 kts 128°
2026-04-29 09:57 42.68360 17.33071 37080 ft 476 kts 128°
2026-04-29 09:58 42.64403 17.40271 37084 ft 475 kts 128°
2026-04-29 09:58 42.60440 17.47465 37085 ft 476 kts 128°
2026-04-29 09:59 42.56469 17.54659 37086 ft 476 kts 128°
2026-04-29 09:59 42.52486 17.61851 37084 ft 476 kts 128°
2026-04-29 10:00 42.48534 17.68973 37086 ft 476 kts 129°
2026-04-29 10:00 42.44547 17.76143 37092 ft 476 kts 129°
2026-04-29 10:01 42.40556 17.83304 37082 ft 476 kts 129°
2026-04-29 10:01 42.36557 17.90465 37090 ft 477 kts 129°
2026-04-29 10:02 42.32556 17.97612 37093 ft 477 kts 129°
2026-04-29 10:02 42.28550 18.04752 37091 ft 477 kts 129°
2026-04-29 10:03 42.24538 18.11884 37091 ft 477 kts 129°
2026-04-29 10:03 42.20525 18.19002 37093 ft 477 kts 129°
2026-04-29 10:04 42.16495 18.26132 37092 ft 477 kts 129°
2026-04-29 10:04 42.12499 18.33187 37090 ft 476 kts 129°
2026-04-29 10:05 42.08469 18.40285 37089 ft 475 kts 129°
2026-04-29 10:05 42.06461 18.43818 36781 ft 474 kts 129°
2026-04-29 10:05 42.04472 18.47313 36497 ft 466 kts 129°
2026-04-29 10:06 42.02504 18.50750 36116 ft 462 kts 130°
2026-04-29 10:06 42.00342 18.53909 35751 ft 455 kts 141°
2026-04-29 10:06 41.97926 18.56537 35378 ft 449 kts 145°
2026-04-29 10:06 41.95452 18.59064 35005 ft 446 kts 146°
2026-04-29 10:07 41.92973 18.61571 34628 ft 444 kts 146°
2026-04-29 10:07 41.90519 18.64062 34259 ft 441 kts 145°
2026-04-29 10:07 41.88086 18.66550 33847 ft 438 kts 145°
2026-04-29 10:07 41.85673 18.69032 33453 ft 435 kts 144°
2026-04-29 10:08 41.83282 18.71501 33074 ft 432 kts 144°
2026-04-29 10:08 41.80903 18.73961 32718 ft 429 kts 144°
2026-04-29 10:08 41.78551 18.76392 32348 ft 425 kts 144°
2026-04-29 10:08 41.76215 18.78804 31985 ft 422 kts 144°
2026-04-29 10:09 41.73890 18.81203 31624 ft 420 kts 144°
2026-04-29 10:09 41.71584 18.83580 31278 ft 417 kts 144°
2026-04-29 10:09 41.69317 18.85914 30927 ft 415 kts 144°
2026-04-29 10:09 41.67037 18.88258 30579 ft 412 kts 144°
2026-04-29 10:10 41.64764 18.90593 30237 ft 410 kts 144°
2026-04-29 10:10 41.62508 18.92909 29834 ft 408 kts 144°
2026-04-29 10:10 41.60266 18.95209 29467 ft 405 kts 144°
2026-04-29 10:10 41.58034 18.97497 29087 ft 402 kts 144°
2026-04-29 10:11 41.56564 18.99002 28844 ft 401 kts 144°
2026-04-29 10:11 41.54364 19.01253 28495 ft 398 kts 144°
2026-04-29 10:11 41.52166 19.03501 28125 ft 396 kts 144°
2026-04-29 10:11 41.49984 19.05731 27766 ft 394 kts 144°
2026-04-29 10:12 41.47811 19.07948 27408 ft 392 kts 144°
2026-04-29 10:12 41.45565 19.09980 27048 ft 388 kts 154°
2026-04-29 10:12 41.43117 19.11447 26702 ft 383 kts 162°
2026-04-29 10:12 41.40616 19.12667 26364 ft 381 kts 163°
2026-04-29 10:13 41.38128 19.13849 26008 ft 380 kts 163°
2026-04-29 10:13 41.35642 19.15028 25668 ft 379 kts 163°
2026-04-29 10:13 41.33160 19.16213 25316 ft 378 kts 163°
2026-04-29 10:13 41.30692 19.17400 24977 ft 377 kts 163°
2026-04-29 10:14 41.28219 19.18596 24633 ft 376 kts 163°
2026-04-29 10:14 41.25761 19.19787 24290 ft 376 kts 163°
2026-04-29 10:14 41.23339 19.20964 23932 ft 376 kts 163°
2026-04-29 10:14 41.20889 19.22154 23571 ft 376 kts 163°
2026-04-29 10:15 41.18431 19.23348 23168 ft 375 kts 163°
2026-04-29 10:15 41.15981 19.24538 22797 ft 373 kts 163°
2026-04-29 10:15 41.13546 19.25720 22438 ft 372 kts 163°
2026-04-29 10:15 41.11123 19.26895 22088 ft 370 kts 163°
2026-04-29 10:16 41.08712 19.28064 21750 ft 368 kts 163°
2026-04-29 10:16 41.06305 19.29229 21408 ft 367 kts 163°
2026-04-29 10:16 41.03919 19.30383 21065 ft 365 kts 163°
2026-04-29 10:16 41.01527 19.31539 20723 ft 364 kts 163°
2026-04-29 10:17 40.99159 19.32682 20386 ft 362 kts 163°
2026-04-29 10:17 40.96789 19.33826 20044 ft 361 kts 163°
2026-04-29 10:17 40.94433 19.34962 19699 ft 359 kts 163°
2026-04-29 10:17 40.92095 19.36089 19378 ft 357 kts 163°
2026-04-29 10:18 40.89771 19.37208 19041 ft 354 kts 163°
2026-04-29 10:18 40.87462 19.38319 18708 ft 352 kts 163°
2026-04-29 10:18 40.85166 19.39423 18382 ft 350 kts 163°
2026-04-29 10:18 40.82881 19.40520 18003 ft 348 kts 163°
2026-04-29 10:19 40.80634 19.41599 17656 ft 346 kts 162°
2026-04-29 10:19 40.78383 19.42679 17317 ft 344 kts 162°
2026-04-29 10:19 40.76143 19.43753 16985 ft 341 kts 162°
2026-04-29 10:19 40.73915 19.44820 16654 ft 339 kts 162°
2026-04-29 10:20 40.71703 19.45879 16327 ft 336 kts 162°
2026-04-29 10:20 40.69511 19.46928 16005 ft 334 kts 162°
2026-04-29 10:20 40.67333 19.47969 15693 ft 332 kts 162°
2026-04-29 10:20 40.65168 19.49003 15377 ft 330 kts 162°
2026-04-29 10:21 40.63011 19.50033 15059 ft 328 kts 162°
2026-04-29 10:21 40.60869 19.51055 14759 ft 327 kts 162°
2026-04-29 10:21 40.58760 19.52060 14445 ft 325 kts 162°
2026-04-29 10:21 40.56635 19.53072 14100 ft 325 kts 162°
2026-04-29 10:22 40.54483 19.54094 13535 ft 331 kts 162°
2026-04-29 10:22 40.52320 19.55119 13170 ft 329 kts 162°
2026-04-29 10:22 40.50167 19.56140 12838 ft 327 kts 161°
2026-04-29 10:22 40.48034 19.57150 12523 ft 324 kts 161°
2026-04-29 10:23 40.45919 19.58152 12213 ft 322 kts 161°
2026-04-29 10:23 40.43819 19.59146 11907 ft 320 kts 161°
2026-04-29 10:23 40.41732 19.60132 11605 ft 318 kts 161°
2026-04-29 10:23 40.39659 19.61112 11295 ft 316 kts 161°
2026-04-29 10:24 40.37601 19.62086 11020 ft 313 kts 161°
2026-04-29 10:24 40.35550 19.63054 10720 ft 312 kts 161°
2026-04-29 10:24 40.33517 19.64013 10432 ft 310 kts 161°
2026-04-29 10:24 40.31525 19.64952 10188 ft 306 kts 161°
2026-04-29 10:25 40.29553 19.65882 10131 ft 295 kts 161°
2026-04-29 10:25 40.27646 19.66781 10151 ft 288 kts 162°
2026-04-29 10:25 40.25753 19.67671 10159 ft 290 kts 161°
2026-04-29 10:25 40.23853 19.68564 10168 ft 290 kts 162°
2026-04-29 10:26 40.21953 19.69457 10166 ft 290 kts 162°
2026-04-29 10:26 40.20062 19.70345 10167 ft 289 kts 162°
2026-04-29 10:26 40.18168 19.71233 10166 ft 288 kts 162°
2026-04-29 10:26 40.16290 19.72115 10118 ft 286 kts 162°
2026-04-29 10:27 40.12594 19.73849 9490 ft 280 kts 162°
2026-04-29 10:27 40.10758 19.74708 8993 ft 281 kts 162°
2026-04-29 10:27 40.08923 19.75572 8587 ft 279 kts 161°
2026-04-29 10:28 40.07130 19.76512 8225 ft 277 kts 159°
2026-04-29 10:28 40.05359 19.77490 7851 ft 274 kts 158°
2026-04-29 10:28 40.03636 19.78447 7464 ft 272 kts 158°
2026-04-29 10:28 40.01897 19.79408 7074 ft 271 kts 158°
2026-04-29 10:29 40.00162 19.80361 6678 ft 268 kts 158°
2026-04-29 10:29 39.98445 19.81300 6265 ft 267 kts 158°
2026-04-29 10:29 39.96731 19.82233 5852 ft 265 kts 159°
2026-04-29 10:29 39.95039 19.83153 5529 ft 260 kts 159°
2026-04-29 10:30 39.93422 19.84031 5457 ft 242 kts 159°
2026-04-29 10:30 39.91944 19.84834 5339 ft 225 kts 159°
2026-04-29 10:30 39.90546 19.85591 5208 ft 210 kts 159°
2026-04-29 10:30 39.89243 19.86297 5055 ft 197 kts 159°
2026-04-29 10:31 39.87983 19.86978 4730 ft 195 kts 159°
2026-04-29 10:31 39.86749 19.87644 4484 ft 186 kts 159°
2026-04-29 10:31 39.85565 19.88283 4161 ft 183 kts 159°
2026-04-29 10:31 39.84389 19.88919 3831 ft 183 kts 159°
2026-04-29 10:32 39.83216 19.89551 3579 ft 181 kts 159°
2026-04-29 10:32 39.82061 19.90173 3325 ft 179 kts 159°
2026-04-29 10:32 39.80895 19.90801 3247 ft 183 kts 159°
2026-04-29 10:32 39.79674 19.91132 3209 ft 181 kts 177°
2026-04-29 10:33 39.78424 19.91260 3200 ft 179 kts 175°
2026-04-29 10:33 39.77187 19.91406 3205 ft 179 kts 175°
2026-04-29 10:33 39.75943 19.91558 3195 ft 179 kts 175°
2026-04-29 10:33 39.74730 19.91655 3178 ft 171 kts 182°
2026-04-29 10:34 39.73526 19.91572 2898 ft 173 kts 184°
2026-04-29 10:34 39.72354 19.91463 2648 ft 165 kts 185°
2026-04-29 10:34 39.71277 19.91365 2442 ft 150 kts 185°
2026-04-29 10:34 39.70246 19.91273 2180 ft 146 kts 185°
2026-04-29 10:35 39.69236 19.91186 1965 ft 146 kts 185°
2026-04-29 10:35 39.68229 19.91095 1746 ft 144 kts 185°
2026-04-29 10:35 39.67217 19.90990 1538 ft 147 kts 185°
2026-04-29 10:35 39.66211 19.90871 1323 ft 143 kts 191°
2026-04-29 10:36 39.65260 19.90528 1127 ft 140 kts 194°
2026-04-29 10:36 39.64285 19.90362 877 ft 142 kts 181°
2026-04-29 10:36 39.63294 19.90421 623 ft 143 kts 171°
2026-04-29 10:36 39.62321 19.90665 384 ft 142 kts 168°
2026-04-29 10:37 39.61357 19.90914 156 ft 139 kts 167°
2026-04-29 10:37 39.60428 19.91150 24 ft 127 kts 166°
2026-04-29 10:37 39.59726 19.91335 20 ft 74 kts 168°
2026-04-29 10:37 39.59456 19.91405 18 ft 25 kts 169°
2026-04-29 10:38 39.59293 19.91447 18 ft 16 kts 168°
2026-04-29 10:38 39.59211 19.91481 17 ft 12 kts 139°
2026-04-29 10:38 39.59149 19.91481 17 ft 12 kts 264°
2026-04-29 10:38 39.59219 19.91451 17 ft 12 kts 359°
2026-04-29 10:39 39.59311 19.91434 17 ft 16 kts 351°
2026-04-29 10:39 39.59450 19.91405 18 ft 24 kts 349°
2026-04-29 10:39 39.59631 19.91358 18 ft 29 kts 349°
2026-04-29 10:39 39.59837 19.91306 23 ft 30 kts 349°
2026-04-29 10:40 39.60077 19.91243 21 ft 38 kts 349°
2026-04-29 10:40 39.60334 19.91176 20 ft 37 kts 348°
2026-04-29 10:40 39.60536 19.91167 20 ft 27 kts 21°
2026-04-29 10:40 39.60634 19.91231 19 ft 14 kts
2026-04-29 10:41 39.60709 19.91216 19 ft 7 kts 349°
2026-04-29 10:41 39.60741 19.91226 22 ft 5 kts 56°
2026-04-29 10:41 39.60751 19.91267 19 ft 5 kts 79°
2026-04-29 10:41 39.60757 19.91308 22 ft 5 kts 79°
2026-04-29 10:42 39.60761 19.91335 20 ft 1 kts 79°
2026-04-29 10:42 39.60761 19.91336 20 ft 0 kts 79°